Погода в Бельмопане

Белиз     17°15′01″N   88°46′19″W
темп.,
°C
ветер,
м/с
пор.,
м/с
влажн.,
%
обл.,
%
осадки,
мм/ч
давл.,
гПа
погр.,
м
24 января, вс
вс2400:00+21вюв129948 0.2 101471
03:00+21вюв1599100 0.3 1014162
06:00+21юв139970 0.4 101487
09:00+25вюв2791100 0.1 1016775
12:00+29в366058 0.3 10141437
15:00+28в3665100 0.1 10111244
18:00+23в279171 0.2 1012332
21:00+21вюв129940 0.1 101488
25 января, пн
пн2500:00+21вюв269971 0.1 1013235
03:00+21вюв1599100 0.0 1012171
06:00+21юв119997 0.0 101363
09:00+26вюв2781100 0.0 1014892
12:00+30вюв385172 0.1 10121527
15:00+29в3747100 0.0 10091275
18:00+23в2883100 0.0 1010320
21:00+21вюв2896100 0.0 1011288
26 января, вт
вт2600:00+21вюв1899100 0.0 1011332
03:00+21вюв1699100 0.0 1009230
06:00+21вюв129999 0.0 1010108
09:00+27вюв2777100 0.0 1012784
12:00+31в365666 0.0 10111339
15:00+30в46580 0.0 10091190
18:00+24в27882 0.0 1010358
21:00+22вюв189910 0.1 1012316
27 января, ср
ср2700:00+22вюв189921 0.1 1012397
03:00+22вюв1810043 0.1 1011376
06:00+22вюв169935 0.1 1012201
09:00+27вюв278023 0.0 1014771
12:00+31в365217 0.0 10131440
15:00+30в36560 0.0 10111314
18:00+23всв27820 0.0 1013233
21:00+21юв119910 0.0 101531
28 января, чт
чт2800:00+21всв019938 0.1 101623
03:00+21сз1110047 0.1 101527
06:00+21зсз019955 0.3 101728
09:00+25в149252 2.3 1019395
12:00+27в367447 5.6 10181073
15:00+29всв365449 0.0 10161691
18:00+23в148575 0.0 1018123
21:00+20вюв119990 0.0 102027